Location: Unspecified
(0.0000°N, 0.0000°E)
Time: 10:21:41
(UTC+00:00)

Transit 2A - All Passes

Search period start: 21 October 2014 00:00
Search period end: 31 October 2014 00:00
Orbit: 599 x 964 km, 66.7° (Epoch: 19 October)

Date Brightness Start Highest point End Pass type
(mag) Time Alt. Az. Time Alt. Az. Time Alt. Az.
21 Oct - 01:23:07 10° SSE 01:25:44 15° ESE 01:28:18 10° ENE night (unlit)
21 Oct - 03:05:24 10° WSW 03:08:38 20° WNW 03:11:49 10° NNW night (unlit)
21 Oct - 13:53:50 10° N 13:59:55 65° ENE 14:06:13 10° SSE daylight
21 Oct - 15:41:23 10° W 15:43:06 11° WSW 15:44:49 10° SW daylight
22 Oct - 02:31:05 10° SW 02:35:09 36° WNW 02:39:06 10° N night (unlit)
22 Oct - 13:20:41 10° N 13:26:25 41° ENE 13:32:20 10° SE daylight
22 Oct - 15:05:21 10° WNW 15:09:31 19° WSW 15:13:45 10° SSW daylight
23 Oct - 01:57:16 10° SSW 02:01:41 69° WNW 02:05:56 10° NNE night (unlit)
23 Oct - 12:47:53 10° NNE 12:52:55 26° ENE 12:58:05 10° SE daylight
23 Oct - 14:30:41 10° NW 14:35:58 29° WSW 14:41:21 10° SSW daylight
24 Oct - 01:23:47 10° S 01:28:11 63° ESE 01:32:25 10° NNE night (unlit)
24 Oct - 12:15:39 10° NNE 12:19:25 17° ENE 12:23:14 10° ESE daylight
24 Oct - 13:56:32 10° NW 14:02:25 45° WSW 14:08:28 10° S daylight
25 Oct - 00:50:39 10° S 00:54:40 33° ESE 00:58:33 10° NE night (unlit)
25 Oct - 13:22:44 10° NNW 13:28:54 71° WSW 13:35:15 10° SSE daylight
26 Oct - 00:18:00 10° SSE 00:21:08 19° ESE 00:24:10 10° ENE night (unlit)
26 Oct - 02:01:16 10° WSW 02:04:00 16° WNW 02:06:43 10° NNW night (unlit)
26 Oct - 12:49:12 10° NNW 12:55:23 76° ENE 13:01:45 10° SSE daylight
26 Oct - 23:47:03 10° ESE 23:47:34 10° ESE 23:48:05 10° ESE night (unlit)
27 Oct - 01:26:42 10° SW 01:30:31 29° WNW 01:34:15 10° N night (unlit)
27 Oct - 12:15:57 10° N 12:21:53 49° ENE 12:27:59 10° SE daylight
27 Oct - 14:01:26 10° WNW 14:05:00 16° WSW 14:08:36 10° SW daylight
28 Oct - 00:52:44 10° SSW 00:57:02 54° WNW 01:01:13 10° N night (unlit)
28 Oct - 11:43:00 10° N 11:48:22 31° ENE 11:53:53 10° SE daylight
28 Oct - 13:26:28 10° WNW 13:31:26 25° WSW 13:36:28 10° SSW daylight
29 Oct - 00:19:07 10° SSW 00:23:32 79° ESE 00:27:49 10° NNE night (unlit)
29 Oct - 11:10:30 10° NNE 11:14:52 20° ENE 11:19:18 10° ESE daylight
29 Oct - 12:52:10 10° NW 12:57:53 38° WSW 13:03:44 10° S daylight
29 Oct - 23:45:51 10° S 23:50:02 41° ESE 23:54:04 10° NE night (unlit)
30 Oct - 10:39:02 10° NE 10:41:20 12° ENE 10:43:39 10° E daylight
30 Oct - 12:18:14 10° NNW 12:24:22 60° WSW 12:30:37 10° S daylight
30 Oct - 23:13:00 10° SSE 23:16:30 23° ESE 23:19:54 10° ENE night (unlit)
